• In Belarus
  • List of Countries
  • For 7 days
  • Water Temperature
  • Satellite Maps
  • Weather Map
  • Weather Widgets
  • user-avatar
    Login

    Hourly Weather Kiustendil

    Today, 18 July, Wednesday

    Time Temperature Precipitation Wind Pressure Humidity
    00:00 +8°C° 0 mm 2 mps 622 mmHg 90%
    01:00 +8°C° 0 mm 2 mps 622 mmHg 91%
    02:00 +7°C° 0 mm 2 mps 622 mmHg 91%
    03:00 +7°C° 0 mm 2 mps 621 mmHg 92%
    04:00 +7°C° 0 mm 2 mps 621 mmHg 92%
    05:00 +9°C° 0 mm 2 mps 622 mmHg 83%
    06:00 +11°C° 0 mm 3 mps 623 mmHg 74%
    07:00 +13°C° 0 mm 3 mps 624 mmHg 65%
    08:00 +14°C° 0 mm 4 mps 624 mmHg 58%
    09:00 +16°C° 0 mm 5 mps 625 mmHg 50%
    10:00 +19°C° 0 mm 6 mps 625 mmHg 43%
    11:00 +19°C° 0 mm 6 mps 625 mmHg 41%
    12:00 +20°C° 0 mm 6 mps 626 mmHg 40%
    13:00 +20°C° 0 mm 6 mps 626 mmHg 38%
    14:00 +20°C° 0 mm 6 mps 625 mmHg 39%
    15:00 +20°C° 0 mm 6 mps 625 mmHg 40%
    16:00 +19°C° 0 mm 6 mps 625 mmHg 41%
    17:00 +16°C° 0 mm 6 mps 625 mmHg 48%
    18:00 +14°C° 0 mm 5 mps 624 mmHg 55%
    19:00 +12°C° 0 mm 4 mps 624 mmHg 62%
    20:00 +11°C° 0 mm 3 mps 623 mmHg 68%
    21:00 +10°C° 0 mm 2 mps 623 mmHg 74%
    22:00 +8°C° 0 mm 2 mps 623 mmHg 79%
    23:00 +8°C° 0 mm 2 mps 623 mmHg 81%

    Tomorrow, 19 July, Thursday

    Time Temperature Precipitation Wind Pressure Humidity
    00:00 +8°C° 0 mm 2 mps 622 mmHg 82%
    01:00 +8°C° 0 mm 1 mps 622 mmHg 84%
    02:00 +8°C° 0 mm 1 mps 622 mmHg 84%
    03:00 +8°C° 0 mm 1 mps 622 mmHg 84%
    04:00 +8°C° 0 mm 1 mps 621 mmHg 85%
    05:00 +8°C° 0.1 mm 2 mps 622 mmHg 79%
    06:00 +10°C° 0.1 mm 2 mps 622 mmHg 73%
    07:00 +11°C° 0.1 mm 3 mps 623 mmHg 67%
    08:00 +11°C° 0.1 mm 3 mps 623 mmHg 67%
    09:00 +11°C° 0.1 mm 3 mps 623 mmHg 67%
    10:00 +12°C° 0.1 mm 3 mps 623 mmHg 67%
    11:00 +12°C° 0 mm 3 mps 624 mmHg 66%
    12:00 +13°C° 0 mm 3 mps 624 mmHg 64%
    13:00 +14°C° 0 mm 4 mps 624 mmHg 62%
    14:00 +14°C° 0 mm 4 mps 624 mmHg 63%
    15:00 +14°C° 0 mm 4 mps 624 mmHg 63%
    16:00 +14°C° 0 mm 4 mps 624 mmHg 64%
    17:00 +13°C° 0 mm 3 mps 624 mmHg 69%
    18:00 +12°C° 0 mm 3 mps 624 mmHg 74%
    19:00 +12°C° 0 mm 2 mps 624 mmHg 78%
    20:00 +10°C° 0 mm 2 mps 624 mmHg 82%
    21:00 +10°C° 0 mm 2 mps 624 mmHg 85%
    22:00 +10°C° 0 mm 1 mps 624 mmHg 88%
    23:00 +10°C° 0 mm 1 mps 624 mmHg 89%

    Day after tomorrow, 20 July, Friday

    Time Temperature Precipitation Wind Pressure Humidity
    00:00 +10°C° 0 mm 1 mps 623 mmHg 90%
    01:00 +9°C° 0 mm 1 mps 623 mmHg 91%
    02:00 +9°C° 0 mm 1 mps 623 mmHg 91%
    03:00 +9°C° 0 mm 1 mps 623 mmHg 91%
    04:00 +9°C° 0 mm 1 mps 623 mmHg 92%
    05:00 +10°C° 0 mm 2 mps 624 mmHg 85%
    06:00 +13°C° 0 mm 2 mps 625 mmHg 77%
    07:00 +14°C° 0 mm 3 mps 626 mmHg 70%
    08:00 +16°C° 0 mm 3 mps 626 mmHg 64%
    09:00 +17°C° 0 mm 4 mps 627 mmHg 58%
    10:00 +19°C° 0 mm 4 mps 627 mmHg 52%
    11:00 +20°C° 0 mm 4 mps 627 mmHg 49%
    12:00 +20°C° 0 mm 4 mps 627 mmHg 47%
    13:00 +21°C° 0 mm 4 mps 627 mmHg 44%
    14:00 +21°C° 0 mm 4 mps 627 mmHg 44%
    15:00 +21°C° 0 mm 4 mps 627 mmHg 45%
    16:00 +21°C° 0 mm 4 mps 627 mmHg 45%
    17:00 +19°C° 0 mm 4 mps 626 mmHg 53%
    18:00 +17°C° 0 mm 3 mps 626 mmHg 61%
    19:00 +15°C° 0 mm 2 mps 625 mmHg 69%
    20:00 +13°C° 0 mm 2 mps 625 mmHg 74%
    21:00 +12°C° 0 mm 2 mps 625 mmHg 79%
    22:00 +10°C° 0 mm 2 mps 625 mmHg 85%
    23:00 +10°C° 0 mm 1 mps 624 mmHg 86%

    21 July, Saturday

    Time Temperature Precipitation Wind Pressure Humidity
    00:00 +10°C° 0 mm 1 mps 624 mmHg 87%
    01:00 +9°C° 0 mm 1 mps 624 mmHg 88%
    02:00 +9°C° 0 mm 1 mps 624 mmHg 88%
    03:00 +9°C° 0 mm 1 mps 624 mmHg 87%
    04:00 +8°C° 0 mm 1 mps 623 mmHg 87%
    05:00 +11°C° 0 mm 1 mps 624 mmHg 77%
    06:00 +13°C° 0 mm 1 mps 625 mmHg 66%
    07:00 +15°C° 0 mm 1 mps 626 mmHg 56%
    08:00 +17°C° 0 mm 2 mps 627 mmHg 47%
    09:00 +19°C° 0 mm 2 mps 627 mmHg 39%
    10:00 +21°C° 0 mm 2 mps 628 mmHg 30%
    11:00 +23°C° 0 mm 2 mps 628 mmHg 27%
    12:00 +25°C° 0 mm 3 mps 628 mmHg 24%
    13:00 +26°C° 0 mm 3 mps 628 mmHg 21%
    14:00 +26°C° 0 mm 3 mps 628 mmHg 22%
    15:00 +26°C° 0 mm 3 mps 628 mmHg 23%
    16:00 +26°C° 0 mm 3 mps 628 mmHg 24%
    17:00 +22°C° 0 mm 3 mps 627 mmHg 30%
    18:00 +19°C° 0 mm 2 mps 626 mmHg 36%
    19:00 +16°C° 0 mm 1 mps 625 mmHg 42%
    20:00 +15°C° 0 mm 1 mps 625 mmHg 44%
    21:00 +14°C° 0 mm 1 mps 624 mmHg 46%
    22:00 +13°C° 0 mm 1 mps 624 mmHg 47%
    23:00 +13°C° 0 mm 1 mps 624 mmHg 49%

    22 July, Sunday

    Time Temperature Precipitation Wind Pressure Humidity
    00:00 +12°C° 0 mm 1 mps 624 mmHg 50%
    01:00 +12°C° 0 mm 1 mps 624 mmHg 52%
    02:00 +11°C° 0 mm 1 mps 624 mmHg 54%
    03:00 +11°C° 0 mm 1 mps 623 mmHg 57%
    04:00 +11°C° 0 mm 1 mps 623 mmHg 60%
    05:00 +13°C° 0 mm 1 mps 624 mmHg 54%
    06:00 +16°C° 0 mm 1 mps 625 mmHg 49%
    07:00 +19°C° 0 mm 1 mps 626 mmHg 44%
    08:00 +21°C° 0 mm 1 mps 626 mmHg 38%
    09:00 +23°C° 0 mm 1 mps 627 mmHg 33%
    10:00 +25°C° 0 mm 1 mps 627 mmHg 28%
    11:00 +26°C° 0 mm 2 mps 627 mmHg 26%
    12:00 +27°C° 0 mm 2 mps 627 mmHg 24%
    13:00 +28°C° 0 mm 2 mps 627 mmHg 22%
    14:00 +27°C° 0.3 mm 2 mps 626 mmHg 26%
    15:00 +26°C° 0.3 mm 2 mps 625 mmHg 29%
    16:00 +26°C° 0.3 mm 2 mps 625 mmHg 33%
    17:00 +21°C° 0.9 mm 2 mps 624 mmHg 44%
    18:00 +18°C° 0.9 mm 2 mps 622 mmHg 56%
    19:00 +15°C° 0.9 mm 2 mps 621 mmHg 68%
    20:00 +14°C° 1.3 mm 2 mps 621 mmHg 72%
    21:00 +13°C° 1.3 mm 2 mps 621 mmHg 76%
    22:00 +12°C° 1.3 mm 2 mps 621 mmHg 80%
    23:00 +12°C° 0.1 mm 1 mps 621 mmHg 80%

    23 July, Monday

    Time Temperature Precipitation Wind Pressure Humidity
    00:00 +12°C° 0.1 mm 1 mps 620 mmHg 81%
    01:00 +11°C° 0.1 mm 1 mps 620 mmHg 81%
    02:00 +11°C° 0 mm 1 mps 620 mmHg 81%
    03:00 +11°C° 0 mm 1 mps 620 mmHg 81%
    04:00 +11°C° 0 mm 1 mps 619 mmHg 81%
    05:00 +13°C° 0.1 mm 1 mps 620 mmHg 76%
    06:00 +14°C° 0.1 mm 1 mps 621 mmHg 71%
    07:00 +16°C° 0.1 mm 1 mps 621 mmHg 65%
    08:00 +19°C° 0.3 mm 1 mps 622 mmHg 59%
    09:00 +20°C° 0.3 mm 1 mps 622 mmHg 52%
    10:00 +21°C° 0.3 mm 2 mps 623 mmHg 45%
    11:00 +23°C° 0.2 mm 2 mps 623 mmHg 43%
    12:00 +23°C° 0.2 mm 2 mps 623 mmHg 41%
    13:00 +24°C° 0.2 mm 3 mps 623 mmHg 39%
    14:00 +22°C° 0.3 mm 3 mps 622 mmHg 42%
    15:00 +21°C° 0.3 mm 3 mps 622 mmHg 45%
    16:00 +21°C° 0.3 mm 3 mps 622 mmHg 48%
    17:00 +19°C° 0.4 mm 3 mps 621 mmHg 55%
    18:00 +17°C° 0.4 mm 3 mps 621 mmHg 62%
    19:00 +14°C° 0.4 mm 3 mps 621 mmHg 69%
    20:00 +14°C° 0.2 mm 2 mps 621 mmHg 73%
    21:00 +13°C° 0.2 mm 2 mps 621 mmHg 78%
    22:00 +12°C° 0.2 mm 2 mps 621 mmHg 82%
    23:00 +12°C° 0 mm 2 mps 620 mmHg 84%
    Show more